Location: Deurze
(52.9838°N, 6.6090°E)
Time: 19:44:13
(UTC+00:00)

SPOT 5 - Pass Details

Date: 11 March 2026
Orbit: 617 x 803 km, 98.0° (Epoch: 20 April)

Event Time Altitude Azimuth Distance (km) Brightness Sun altitude
Rises 18:43:13 0° 154° (SSE) 3,301 5.9 -11.7°
Reaches altitude 10° 18:45:34 10° 152° (SSE) 2,379 5.2 -12.1°
Maximum altitude 18:50:49 68° 71° (ENE) 866 3.1 -12.9°
Drops below altitude 10° 18:56:02 10° 350° (N) 2,363 5.8 -13.6°
Sets 18:58:21 0° 348° (NNW) 3,278 6.6 -14.0°
